Flag Weather past 2 weeks in Huntington Beach, California, U.S.A.

Now
76 °F

Scattered clouds.


Feels Like: 78 °F
Forecast: 62 / 74 °F
Wind: 9 mph from Southwest

Location: John Wayne Airport-Orange County Airport

Current Time: Oct 30, 2014 at 12:21:53 PM

Latest Report: Oct 30, 2014 at 11:53 AM


Visibility: 10 mi

Pressure: 29.98 "Hg

Humidity: 60%

Dew point: 61 °F

Location of Huntington BeachLocation

Historic Weather in Huntington Beach — Graph

°F

Huntington Beach temperature yesterday

Maximum temperature yesterday: 83 °F (at 1:53 PM)
Minimum temperature yesterday: 62 °F (at 4:53 AM)
Average temperature yesterday: 71 °F

Past Weeks' High & Low Weather Summary

 TemperatureHumidityPressure
High86 °F (Oct 24, 12:53 PM)85% (Oct 26, 5:53 AM)30.04 "Hg (Oct 26, 5:53 AM)
Low60 °F (Oct 27, 6:53 AM)23% (Oct 24, 12:53 PM)29.83 "Hg (Oct 19, 4:53 PM)
Average71 °F65%29.93 "Hg
* Reported Oct 15 10:53 AM — Oct 30 10:53 AM, Huntington Beach, Weather by CustomWeather, © 2014

Note: Actual official high and low records may vary slightly from our data, if they occured in-between our weather recording intervals... More about our weather records

Advertising

Huntington Beach weather history for previous 24 hours

 ConditionsComfort  
Time TempWeatherWind HumidityBarometerVisibility
10:53 AM
Oct 30
73 °FBroken clouds.No wind59%29.98 "Hg10 mi
9:53 AM71 °FBroken clouds.No wind66%29.99 "Hg10 mi
8:53 AM68 °FBroken clouds.No wind70%29.98 "Hg9 mi
7:53 AM64 °FPartly cloudy.No wind75%29.97 "Hg10 mi
6:53 AM63 °FPartly cloudy.No wind78%29.96 "Hg10 mi
5:53 AM63 °FPassing clouds.No wind81%29.96 "Hg10 mi
4:53 AM64 °FClear.5 mph81%29.96 "Hg10 mi
3:53 AM65 °FClear.No wind76%29.97 "Hg10 mi
2:53 AM64 °FClear.3 mph78%29.97 "Hg10 mi
1:53 AM66 °FClear.No wind75%29.98 "Hg10 mi
12:53 AM67 °FClear.3 mph76%29.99 "Hg10 mi
11:53 PM
Oct 29
68 °FClear.No wind76%29.99 "Hg10 mi
10:53 PM69 °FClear.No wind73%29.98 "Hg10 mi
9:53 PM69 °FPassing clouds.No wind70%29.98 "Hg10 mi
8:53 PM71 °FPassing clouds.No wind68%29.97 "Hg10 mi
7:53 PM72 °FPassing clouds.No wind64%29.96 "Hg10 mi
6:53 PM73 °FPassing clouds.5 mph62%29.96 "Hg10 mi
5:53 PM75 °FSunny.6 mph60%29.95 "Hg10 mi
4:53 PM79 °FSunny.8 mph48%29.94 "Hg10 mi
3:53 PM82 °FSunny.5 mph37%29.94 "Hg10 mi
2:53 PM82 °FSunny.7 mph41%29.94 "Hg10 mi
1:53 PM83 °FSunny.7 mph38%29.96 "Hg10 mi
12:53 PM81 °FSunny.3 mph42%29.98 "Hg10 mi
Weather by CustomWeather, © 2014

See weather overviewHow to use our weather pages